Regional Weather Roundup
Issued by NWS

Home | Current Version | Previous Version | Text Only | Print | Product List | Glossary On
Versions: 1 2 3 4 5 6 7 8 9 10 11 12 13 14 15 16 17 18 19 20 21 22 23 24 25 26 27 28 29 30 31 32 33 34 35 36 37 38 39 40 41 42 43 44 45 46 47 48 49 50
000
ASUS44 KFWD 201215
RWRTX
NORTH TEXAS HOURLY WEATHER ROUNDUP
NATIONAL WEATHER SERVICE FORT WORTH TX
600 AM CST FRI JAN 20 2017

NOTE: "FAIR" INDICATES FEW OR NO CLOUDS BELOW 12,000 FEET WITH NO
SIGNIFICANT WEATHER AND/OR OBSTRUCTIONS TO VISIBILITY.

TXZ118-119-201300-
DALLAS/FORT WORTH METROPLEX

CITY           SKY/WX    TMP DP  RH WIND       PRES   REMARKS
DFW AIRPORT    CLEAR     48  40  73 SW13      29.61R
6HR MIN TEMP:  47; 6HR MAX TEMP:  55;

DALLAS LOVE    CLEAR     53  41  63 SW9       29.63R
6HR MIN TEMP:  53; 6HR MAX TEMP:  57;

FTW MEACHAM    CLEAR     53  35  50 SW10      29.62R
6HR MIN TEMP:  52; 6HR MAX TEMP:  56;

DAL-EXECUTIVE  CLEAR     53  38  56 SW8       29.64R
6HR MIN TEMP:  53; 6HR MAX TEMP:  56;

FTW-ALLIANCE   PTCLDY    49  36  61 SW6       29.61S
6HR MIN TEMP:  47; 6HR MAX TEMP:  55;

FTW-NAS-JRB    CLEAR     53  35  50 SW12      29.63R
6HR MIN TEMP:  52; 6HR MAX TEMP:  56;

FTW-SPINKS     CLEAR     48  37  63 S7        29.67R
6HR MIN TEMP:  48; 6HR MAX TEMP:  54;

ARLINGTON      CLEAR     50  38  63 S7        29.64R
6HR MIN TEMP:  49; 6HR MAX TEMP:  54;

ADDISON        CLEAR     52  43  71 S8        29.63S
MESQUITE       CLEAR     46  44  92 S8        29.65R
6HR MIN TEMP:  46; 6HR MAX TEMP:  54;

LANCASTER      CLEAR     49  40  73 SW6       29.66R
6HR MIN TEMP:  48; 6HR MAX TEMP:  55;

$$

TXZ091>094-102>105-117-120-121-131>134-201300-
NORTH CENTRAL TEXAS

CITY           SKY/WX    TMP DP  RH WIND       PRES   REMARKS
SHRMAN/DENISON CLEAR     51  43  73 S15       29.58S
6HR MIN TEMP:  50; 6HR MAX TEMP:  54;

GAINESVILLE    CLEAR     43  36  78 CALM      29.59S
6HR MIN TEMP:  41; 6HR MAX TEMP:  50;

BOWIE          CLEAR     52  37  55 SW7       29.58S
6HR MIN TEMP:  49; 6HR MAX TEMP:  56;

BRIDGEPORT     CLEAR     51  37  59 SW9       29.62S
6HR MIN TEMP:  50; 6HR MAX TEMP:  56;

DECATUR        CLEAR     51  34  52 SW9       29.60S
6HR MIN TEMP:  51; 6HR MAX TEMP:  57;

DENTON         CLEAR     46  38  73 S10       29.60S
6HR MIN TEMP:  43; 6HR MAX TEMP:  54;

MCKINNEY       CLEAR     49  44  83 SW9       29.62R
6HR MIN TEMP:  44; 6HR MAX TEMP:  53;

BONHAM         CLEAR     48  45  87 S10       29.59F
GREENVILLE     CLEAR     50  45  81 S9        29.64R
ROCKWALL       CLEAR     50  46  84 SW14      29.63S
6HR MIN TEMP:  50; 6HR MAX TEMP:  53;

TERRELL        CLEAR     51  44  77 S7        29.65R
6HR MIN TEMP:  51; 6HR MAX TEMP:  54;

WAXAHACHIE     CLEAR     51  40  66 SW7       29.67R
6HR MIN TEMP:  50; 6HR MAX TEMP:  53;

CLEBURNE       CLEAR     48  39  71 S6        29.68R
GRANBURY       CLEAR     54  35  47 S7        29.66R
6HR MIN TEMP:  54; 6HR MAX TEMP:  57;

$$

TXZ083>090-098>101-113>116-127>130-139>142-154-155-201300-
WESTERN NORTH TEXAS

CITY           SKY/WX    TMP DP  RH WIND       PRES   REMARKS
WICHITA FALLS  CLEAR     47  36  65 SW14      29.54R
6HR MIN TEMP:  43; 6HR MAX TEMP:  52;

WF-KICKAPOO    CLEAR     50  37  59 SW9       29.56S
6HR MIN TEMP:  49; 6HR MAX TEMP:  55;

VERNON         CLEAR     44  34  68 SW9       29.54R WCI  39
6HR MIN TEMP:  33; 6HR MAX TEMP:  69;

ABILENE        CLEAR     53  34  48 W14G22    29.67R
6HR MIN TEMP:  46; 6HR MAX TEMP:  53;

ABILENE-DYESS  CLEAR     53  31  41 SW15      29.65R
6HR MIN TEMP:  53; 6HR MAX TEMP:  55;

GRAHAM         CLEAR     48  37  66 S7        29.61R
BRECKENRIDGE   CLEAR     50  34  53 SW9       29.64S
6HR MIN TEMP:  50; 6HR MAX TEMP:  56;

CISCO          CLEAR     50  34  53 SW13      29.65S
RANGER         CLEAR     50  34  53 SW9       29.66R
MINERAL WELLS  CLEAR     48  33  56 W3        29.62R
6HR MIN TEMP:  48; 6HR MAX TEMP:  57;

STEPHENVILLE   CLEAR     51  33  48 SW5       29.70R
6HR MIN TEMP:  49; 6HR MAX TEMP:  56;

COMANCHE       CLEAR     53  33  47 SW7       29.69R
6HR MIN TEMP:  49; 6HR MAX TEMP:  58;

BROWNWOOD      CLEAR     50  32  50 S5        29.71R
COLEMAN        CLEAR     45  34  65 S7        29.70R
$$

TXZ143>147-156>162-174-175-201300-
CENTRAL TEXAS

CITY           SKY/WX    TMP DP  RH WIND       PRES   REMARKS
WACO           CLEAR     49  45  86 SW8       29.69S
6HR MIN TEMP:  49; 6HR MAX TEMP:  55;

WACO-MCGREGOR  PTCLDY    48  44  86 S7        29.71R
6HR MIN TEMP:  48; 6HR MAX TEMP:  54;

HILLSBORO      CLEAR     49  42  77 S8        29.68R
6HR MIN TEMP:  49; 6HR MAX TEMP:  55;

CORSICANA      CLEAR     54  50  86 S9        29.69S
6HR MIN TEMP:  54; 6HR MAX TEMP:  58;

MEXIA          CLEAR     53  51  94 S14G21    29.70S
6HR MIN TEMP:  53; 6HR MAX TEMP:  56;

HEARNE         CLOUDY    57  57  99 S7        29.75S FOG
6HR MIN TEMP:  54; 6HR MAX TEMP:  58;

CAMERON        CLOUDY    57  57  98 SW8       29.74R FOG
6HR MIN TEMP:  56; 6HR MAX TEMP:  58;

TEMPLE         PTCLDY    46  44  93 S6        29.73R
6HR MIN TEMP:  45; 6HR MAX TEMP:  53;

KILLEEN        CLOUDY    53  41  65 S13       29.71R
6HR MIN TEMP:  47; 6HR MAX TEMP:  56;

KILLEEN-SKYLRK CLOUDY    49  42  77 SW8       29.72S
6HR MIN TEMP:  46; 6HR MAX TEMP:  56;

FORT HOOD      CLOUDY    51  41  69 SW5       29.69S
6HR MIN TEMP:  46; 6HR MAX TEMP:  56;

GATESVILLE     CLOUDY    54  37  54 SW9       29.72R
HAMILTON       CLEAR     53  35  51 W14       29.70S
6HR MIN TEMP:  48; 6HR MAX TEMP:  53;

LAMPASAS       CLOUDY    45  40  83 CALM      29.72R
6HR MIN TEMP:  45; 6HR MAX TEMP:  52;

$$

TXZ095>097-106>112-122>126-135>138-148>153-164>167-201300-
EAST TEXAS

CITY           SKY/WX    TMP DP  RH WIND       PRES   REMARKS
PARIS          CLEAR     50  46  87 S9        29.62S
6HR MIN TEMP:  50; 6HR MAX TEMP:  54;

SULPHUR SPRNGS CLEAR     52  49  90 S10       29.66R
6HR MIN TEMP:  52; 6HR MAX TEMP:  56;

MOUNT PLEASANT CLEAR     55  55 100 S7        29.67R
6HR MIN TEMP:  54; 6HR MAX TEMP:  56;

GILMER         CLOUDY    54  53  96 S7        29.67R
6HR MIN TEMP:  54; 6HR MAX TEMP:  57;

MINEOLA        CLEAR     55  52  88 S10       29.66R
TYLER          CLEAR     55  53  93 S10       29.68R
6HR MIN TEMP:  55; 6HR MAX TEMP:  58;

LONGVIEW       CLEAR     56  55  97 SW13      29.68R
6HR MIN TEMP:  56; 6HR MAX TEMP:  58;

MARSHALL       CLEAR     55  53  92 S6        29.71R
6HR MIN TEMP:  55; 6HR MAX TEMP:  57;

ATHENS         CLEAR     52  52 100 S7        29.68S
PALESTINE      CLOUDY    56  56 100 S6        29.73S FOG
JACKSONVILLE   CLOUDY    56  56  99 S9        29.72F
HENDERSON      CLOUDY    55  55 100 SW3       29.71S
6HR MIN TEMP:  55; 6HR MAX TEMP:  58;

CENTER         CLOUDY    60  58  94 S8        29.74S
6HR MIN TEMP:  60; 6HR MAX TEMP:  61;

NACOGDOCHES    CLOUDY    57  55  94 SW8       29.73R
6HR MIN TEMP:  57; 6HR MAX TEMP:  59;

LUFKIN         CLOUDY    59  57  93 SW10      29.75R
6HR MIN TEMP:  58; 6HR MAX TEMP:  59;

$$

SUPPLEMENTAL OBSERVATIONS (CENTRAL)

CITY           SKY/WX    TMP DP  RH WIND       PRES   REMARKS
DENISON DAM      N/A     54  36  50 SW22        N/A
CADDO GRASSLND   N/A     52  46  82 S9          N/A
PAT MAYSE LAKE   N/A     52  50  93 S13         N/A
ATHENS           N/A     55  52  88 S9          N/A
MCGREGOR         N/A     46  45  93 SW3         N/A
T


USA.gov is the U.S. government's official web portal to all federal, state and local government web resources and services.